Regional Weather Roundup
Issued by NWS Goodland, KS

Home | Current Version | Previous Version | Graphics & Text | Print | Product List | Glossary On
Versions: 1 2 3 4 5 6 7 8 9 10 11 12 13 14 15 16 17 18 19 20 21 22 23 24 25 26 27 28 29 30 31 32 33 34 35 36 37 38 39 40 41 42 43 44 45 46 47 48 49 50
595
ASUS43 KGLD 042008
RWRGLD

GOODLAND FORECAST AREA HOURLY WEATHER ROUNDUP
NATIONAL WEATHER SERVICE GOODLAND KS
200 PM MDT WED MAY 04 2016

...OFFICIAL OBSERVATIONS...

CITY           SKY/WX    TMP DP  RH WIND       PRES   REMARKS
GOODLAND KS    SUNNY     75  40  28 N12       30.15F
HILL CITY KS   SUNNY     76  40  27 NE10      30.12S
IMPERIAL NEB   SUNNY     75  37  25 NE8       30.13F
MCCOOK NEB     SUNNY     75  40  28 CALM      30.10F
AKRON CO       SUNNY     71  37  28 NE8       30.19F
BURLINGTON CO  SUNNY     74  36  25 NE9       30.18F
LIMON CO       SUNNY     70  35  27 MISG      30.22F
$$

...UNOFFICIAL OBSERVATIONS...

CITY           SKY/WX    TMP DP  RH WIND       PRES   REMARKS
COLBY KS       SUNNY     73  48  40 N5        30.15F
LENORA KS        N/A     73  32  22 MISG        N/A
NORTON KS      SUNNY     73  30  20 N12G21    30.10F
SHARON SPRINGS   N/A     75  45  33 CALM        N/A
TRIBUNE KS     SUNNY     75  41  29 N5        30.17
KIT CARSON CO    N/A     73  40  29 MISG        N/A
YUMA CO          N/A     73  39  29 CALM        N/A
$$




USA.gov is the U.S. government's official web portal to all federal, state and local government web resources and services.